{"data":{"norad_id":63119,"epoch":"2026-09-21T11:49:57.487008Z","epoch_age_seconds":76527,"freshness":"FRESH","line1":"1 63119U 25039R   26264.49302647  .00009155  00000+0  34175-3 0  9996","line2":"2 63119  43.0009 335.6180 0000489 253.5898 106.4900 15.27582379 88145","mean_motion":15.27582379,"eccentricity":4.89e-5,"inclination_deg":43.0009,"raan_deg":335.618,"arg_perigee_deg":253.5898,"mean_anomaly_deg":106.49,"bstar":0.00034175,"rev_number":8814,"period_min":94.266601906122,"perigee_km":482.7064608153,"apogee_km":483.37748411881,"semimajor_km":6861.1789724671,"source":"CELESTRAK","updated_at":"2026-09-22T09:00:49.765441Z"}}